Theta_e
311 310 309 310 310 311 308 308 308 308 309 311 312 313 315 317 317 318 319 319 319 319 322 320 320 319 319 319 319 318 318 319 320 320 319 321 317 318 320 319 319 318 318 315 313 313 310 311 312 315 316 313 313 313 314 315 318 323 323 322 320 318 319
311 311 312 312 310 309 307 306 307 308 309 309 310 312 313 316 319 316 316 316 317 318 318 315 315 315 316 317 316 317 316 316 318 320 321 319 317 318 320 319 319 316 313 313 314 313 310 307 308 307 308 311 310 310 310 311 313 314 314 314 314 311 313
313 310 309 308 307 306 306 305 306 307 307 309 309 310 312 313 315 316 314 315 314 316 316 312 312 312 312 312 312 313 313 314 314 318 320 318 318 319 321 320 317 313 310 310 312 311 308 310 309 304 306 305 304 307 309 309 309 310 310 311 311 310 311
311 310 309 306 306 306 306 305 305 306 307 307 309 310 310 312 313 316 313 313 315 317 313 311 311 310 310 310 309 309 309 310 311 312 313 314 315 316 315 317 316 311 309 308 307 308 307 305 304 303 304 304 305 306 308 309 309 308 308 309 309 309 310
312 312 310 308 306 305 305 305 305 306 306 306 307 309 309 311 312 311 313 311 311 310 309 309 309 309 309 308 308 308 307 307 309 309 307 307 307 306 306 307 307 307 307 308 306 306 306 304 303 302 302 303 302 303 305 308 308 307 307 307 308 308 309
313 312 310 309 307 306 305 305 304 304 304 306 306 307 308 308 310 309 309 310 309 310 309 308 308 308 307 307 307 306 306 306 306 306 305 305 306 306 305 305 306 307 306 305 306 304 303 302 302 301 302 301 303 304 304 305 306 307 307 307 307 308 308
314 313 312 312 309 307 306 305 305 305 304 304 305 306 305 308 307 309 308 307 307 308 308 307 307 308 308 307 307 306 306 305 305 305 304 304 304 304 305 306 305 306 305 305 305 305 304 304 303 302 301 300 300 301 303 304 305 305 306 307 307 307 308
316 315 315 314 310 307 305 305 304 303 304 304 304 307 309 306 307 307 307 306 307 308 309 309 309 308 309 308 307 306 306 305 305 305 304 305 305 304 305 305 305 305 304 305 306 306 306 306 304 302 300 299 299 299 301 301 302 304 304 307 307 306 306
316 316 315 314 311 308 306 306 305 304 304 304 306 307 307 307 306 306 307 306 306 307 307 307 307 307 307 307 306 306 306 308 304 304 304 304 304 304 304 304 306 304 305 305 305 305 305 305 305 303 301 298 297 296 299 300 301 303 304 304 306 306 305
315 314 314 312 310 309 307 307 307 306 305 306 308 309 306 305 306 306 305 305 306 306 306 307 306 305 306 307 306 305 305 305 305 303 304 304 303 303 304 305 305 305 305 306 306 306 306 305 304 304 304 304 300 299 297 298 300 301 303 303 301 303 304
315 315 314 312 311 309 308 308 307 307 307 308 309 311 307 306 306 311 305 305 305 306 306 305 305 305 305 305 305 305 305 305 305 305 305 304 304 305 305 304 304 304 305 306 306 306 306 305 305 305 304 303 304 303 300 299 300 300 303 303 303 300 302
314 315 315 313 312 311 310 308 308 308 307 308 311 308 306 306 307 306 305 305 306 306 305 305 306 305 306 306 307 306 305 305 304 304 305 305 305 305 303 303 303 303 303 303 303 304 305 305 304 304 304 304 304 304 302 300 299 302 303 302 303 302 300
314 315 314 313 313 313 312 310 309 308 308 310 307 307 306 306 307 306 305 306 306 306 306 306 306 305 305 306 306 306 305 304 304 305 305 305 304 303 303 303 303 303 303 303 303 303 304 305 305 303 303 303 303 302 303 301 300 300 303 303 302 301 299
313 314 314 313 313 313 311 311 310 310 310 309 307 307 307 306 306 306 305 308 306 306 306 306 306 305 306 305 305 305 304 304 304 304 306 304 304 303 304 303 303 303 303 303 303 302 302 302 302 302 302 302 302 302 302 301 300 299 301 302 301 299 298
314 314 314 313 313 313 313 312 311 311 310 309 308 308 307 306 307 306 306 306 306 306 306 305 305 305 306 305 305 306 304 304 304 304 304 304 303 304 303 304 303 302 302 302 302 301 301 301 300 300 300 301 300 301 302 301 300 299 297 300 299 299 296
313 313 314 313 313 314 314 313 312 311 310 309 310 309 309 308 307 307 306 306 306 306 306 306 305 306 306 306 305 305 306 304 304 304 304 304 303 303 303 305 303 303 303 302 302 301 301 300 300 300 300 299 299 299 299 299 299 296 295 295 298 295 296
312 313 313 313 313 314 314 313 313 312 311 310 310 311 311 310 309 308 308 307 307 307 306 307 306 306 307 306 306 306 306 305 304 304 304 303 303 303 303 303 303 303 303 302 301 301 300 300 300 299 299 299 299 298 298 298 298 298 296 293 295 294 295
312 313 313 313 313 314 313 312 311 312 312 312 312 311 311 311 310 309 309 309 309 308 308 307 307 307 307 307 307 307 306 306 306 305 305 304 305 304 303 304 304 303 302 302 301 300 299 299 298 299 298 298 298 298 298 297 295 295 294 294 295 296 295
312 312 313 313 313 314 313 312 312 312 313 313 313 312 311 311 311 310 310 310 310 309 308 308 308 308 308 308 307 307 307 307 307 307 306 305 305 305 304 304 304 303 302 303 302 300 299 298 297 297 297 297 296 296 296 295 295 295 294 293 294 295 295
311 311 312 312 313 313 313 314 314 313 314 314 313 312 311 311 311 311 310 311 312 312 311 311 310 309 309 308 308 308 308 307 307 306 306 306 306 305 305 304 304 304 304 303 302 301 299 298 299 297 298 298 296 295 295 295 294 294 294 295 294 293 294
310 310 310 310 311 311 312 312 313 313 314 313 313 313 312 312 312 312 312 312 313 313 312 312 311 311 311 310 309 308 308 308 308 307 307 306 306 306 306 305 305 305 305 305 304 302 300 299 298 297 298 297 296 295 294 294 294 294 295 295 294 294 293
309 309 309 310 310 311 311 311 311 312 312 312 312 312 312 312 312 311 312 313 313 312 312 312 313 312 311 311 309 309 308 308 308 308 307 307 306 306 306 306 305 305 307 307 304 303 302 301 298 296 297 297 296 295 294 294 294 293 293 294 295 292 293
308 308 309 310 310 310 310 310 310 311 312 312 311 311 312 313 312 312 311 311 312 311 312 312 312 307 308 312 310 310 309 309 308 308 308 307 306 306 306 307 307 308 306 306 303 299 297 298 299 298 296 297 297 294 294 294 293 294 295 294 295 294 294
307 308 309 309 309 310 310 310 310 311 312 312 311 311 310 310 310 310 310 311 310 309 311 312 305 302 300 301 310 311 310 309 309 308 308 308 307 308 307 307 307 308 307 305 304 297 296 295 295 295 296 296 297 297 294 294 294 294 296 296 293 293 293
307 308 308 309 309 309 308 308 308 309 308 307 308 309 309 310 310 309 309 309 309 310 310 306 301 300 300 298 301 309 310 309 309 308 308 308 308 308 308 307 306 306 307 307 305 301 297 294 293 293 293 293 292 292 294 296 296 293 293 294 293 293 292
308 307 308 310 308 308 308 308 307 307 308 307 309 311 310 308 308 308 309 309 309 309 309 304 301 299 298 297 296 301 309 309 309 309 308 308 308 308 307 307 305 305 306 307 306 301 299 297 294 293 293 293 293 291 289 290 293 298 294 295 294 293 292
306 306 306 306 306 306 307 307 306 307 307 305 306 307 305 306 306 306 307 308 308 307 308 304 299 297 296 295 294 296 306 307 307 307 308 308 308 308 307 306 305 304 303 306 301 298 297 297 297 296 294 294 295 294 292 291 290 290 294 296 294 294 294
304 302 301 301 301 303 304 303 303 303 305 306 306 305 305 305 305 305 305 305 305 305 307 301 296 294 294 294 293 295 303 304 305 305 305 305 306 306 305 305 304 304 302 301 299 298 297 296 295 295 295 294 293 293 294 294 294 294 295 293 294 294 294
300 299 298 297 298 297 296 298 299 298 299 299 300 301 302 303 303 303 302 302 302 304 301 293 293 292 292 291 292 299 301 302 302 303 302 301 302 303 303 303 302 301 301 301 297 293 295 297 296 295 293 292 292 292 293 293 292 293 295 294 294 294 294
297 296 295 295 295 295 295 295 296 296 297 296 297 298 298 297 297 296 297 297 299 298 296 294 291 293 292 290 295 299 300 299 298 297 296 296 297 300 301 301 301 300 300 299 294 291 293 295 296 294 292 291 290 290 290 291 291 290 290 290 289 290 290
297 296 295 295 295 295 294 295 295 296 296 295 296 296 296 294 292 293 295 295 296 294 296 293 293 291 292 291 297 299 299 298 295 294 293 293 294 297 300 302 299 296 296 296 291 291 291 295 294 293 292 291 290 289 289 289 290 290 289 290 289 289 289
296 296 295 296 296 296 295 296 295 294 295 296 296 295 295 294 291 290 291 294 298 294 293 292 292 291 291 292 297 298 298 297 295 293 292 291 291 292 293 296 296 295 295 292 289 290 290 293 293 292 291 290 289 288 289 288 289 290 290 290 289 290 290
297 296 295 295 296 296 296 295 295 295 294 297 296 294 293 292 291 289 289 290 291 291 292 291 293 292 292 292 295 298 298 297 294 291 291 292 291 291 291 292 292 289 289 289 289 289 289 290 292 291 290 289 288 289 288 288 291 290 289 288 288 288 289
298 297 296 296 296 296 295 294 293 293 293 292 292 291 291 291 290 288 288 288 289 290 294 291 291 291 292 293 293 295 297 297 294 293 292 291 291 290 290 290 291 290 289 289 289 288 289 288 289 290 289 289 290 290 288 289 290 289 289 289 289 288 288
296 297 296 296 296 295 294 294 294 293 292 292 291 290 289 289 289 287 287 287 288 287 291 294 291 292 292 293 293 294 296 295 294 293 291 290 290 290 290 290 290 289 288 288 288 289 289 289 289 291 289 287 286 287 291 290 289 288 287 287 287 287 287
297 297 296 296 296 295 294 295 294 294 293 291 291 290 289 289 289 288 287 286 286 286 287 291 291 291 290 291 291 291 291 292 291 294 292 290 290 290 291 291 291 289 288 288 288 288 288 288 289 289 287 287 287 287 289 289 288 287 287 287 287 287 286
297 296 296 296 295 295 294 294 294 294 294 294 292 291 289 288 288 289 288 286 286 286 286 287 290 290 290 289 290 290 290 290 290 292 292 291 290 290 290 291 290 288 288 288 288 288 288 288 288 287 288 287 287 287 288 288 287 287 286 286 286 285 285
Wind_Speed
3 3 2 3 2 3 6 5 5 5 5 5 4 4 4 3 4 5 4 4 4 3 4 4 4 3 3 2 3 4 4 5 5 6 5 2 3 2 3 5 5 5 5 5 4 3 4 6 3 3 2 5 7 8 7 7 7 6 7 7 7 7 7
3 3 1 2 4 3 6 4 5 5 5 5 5 5 3 4 4 5 5 5 4 3 2 4 3 3 4 4 4 4 4 3 4 5 5 3 3 3 3 4 5 4 4 4 3 4 4 4 2 3 3 3 7 8 7 7 7 7 7 7 7 7 7
4 3 2 3 3 3 6 4 4 5 5 5 5 5 4 4 4 4 5 5 5 4 3 4 4 5 4 4 4 4 4 5 4 4 5 3 3 2 2 3 2 2 4 4 5 4 6 4 5 3 2 5 7 5 6 8 8 7 7 6 7 7 6
6 5 4 2 3 4 5 3 4 4 4 4 4 4 4 3 4 3 4 4 4 4 5 5 4 5 4 5 5 6 5 6 5 6 6 4 4 4 3 2 3 3 2 3 3 4 4 4 5 4 3 1 5 7 5 5 6 6 6 7 7 7 6
9 7 6 5 3 3 3 3 2 4 4 4 3 4 4 3 4 4 4 4 5 5 5 5 5 5 5 5 5 5 6 6 6 6 6 7 7 6 5 4 5 5 5 5 3 4 5 4 5 4 3 1 2 1 1 2 4 7 8 8 7 6 6
5 5 5 3 1 3 3 3 3 4 3 4 2 4 3 3 2 4 4 4 4 4 4 5 4 5 5 5 6 6 6 6 6 6 6 5 6 7 6 5 5 6 6 4 5 6 5 5 5 5 2 2 3 2 3 3 3 2 5 7 6 6 6
5 5 4 4 2 1 4 4 4 5 3 2 2 2 3 2 3 2 3 4 3 3 4 5 5 4 5 6 5 6 6 5 6 8 7 7 7 6 5 7 6 6 5 4 4 5 5 5 5 5 4 3 3 3 2 4 4 3 4 5 6 6 6
5 5 5 4 4 4 2 3 3 4 5 3 4 1 3 4 3 2 3 4 3 4 4 5 5 5 5 6 6 6 5 5 7 7 6 7 7 6 6 7 6 6 5 4 5 5 5 5 5 4 5 6 4 5 4 3 2 7 2 1 5 7 7
3 3 3 3 4 5 5 5 4 4 4 4 2 3 3 4 3 3 3 3 2 3 3 4 4 5 5 7 6 6 6 3 7 7 6 7 6 6 6 5 7 6 5 5 5 5 5 4 5 4 5 5 7 3 3 4 4 3 2 4 2 6 7
7 7 6 5 4 4 4 3 3 4 4 3 4 3 4 4 4 3 3 4 4 4 4 5 4 4 4 5 6 6 6 4 6 7 5 7 5 5 5 5 6 5 5 4 4 4 4 4 3 3 3 5 4 6 3 3 2 2 4 4 4 5 7
6 5 6 6 5 4 3 3 2 3 3 3 4 3 4 4 3 4 4 3 3 4 4 4 5 5 4 5 4 4 4 5 7 5 5 6 6 5 5 5 5 5 3 5 4 3 4 4 4 4 4 3 4 6 3 4 1 1 2 3 4 4 5
5 5 6 6 6 7 7 5 4 3 3 3 3 3 3 3 4 4 4 4 3 3 4 4 4 4 4 5 5 5 5 4 5 5 3 5 4 5 6 6 5 5 5 6 5 5 4 4 5 5 5 4 4 5 5 3 3 1 1 3 3 3 4
5 6 7 8 7 7 6 6 5 4 5 4 4 4 3 3 3 4 4 4 4 3 4 3 4 4 4 4 4 5 4 5 5 4 3 3 3 5 6 6 5 5 5 5 6 5 6 5 5 6 5 6 4 3 4 4 4 3 1 1 1 3 5
7 6 6 7 8 7 6 7 7 6 4 4 4 4 4 4 3 3 4 3 3 3 3 3 3 4 3 3 3 3 3 4 5 4 4 4 3 4 5 5 4 4 4 6 5 5 6 6 5 5 4 5 5 3 5 4 4 3 1 1 2 3 4
7 6 7 7 7 7 7 7 5 4 5 3 3 3 3 2 3 4 4 4 4 4 4 4 4 4 4 4 3 2 3 3 4 4 3 4 3 3 5 6 4 4 3 6 6 6 6 5 6 5 4 5 5 3 0 3 2 3 1 1 3 2 3
6 8 8 8 8 8 7 6 6 6 5 5 4 4 4 3 2 1 1 2 4 4 5 5 4 4 4 5 6 4 4 4 5 5 4 4 4 3 4 4 5 4 3 6 5 5 4 5 4 6 5 3 5 4 3 2 3 2 2 1 1 2 3
6 7 8 8 9 8 6 5 5 7 7 6 6 4 4 4 4 3 2 1 1 1 0 1 2 3 5 5 5 5 5 5 6 6 6 6 5 5 5 4 4 4 4 6 5 5 4 4 5 5 5 3 5 4 3 4 4 4 1 3 1 1 2
7 8 9 8 9 7 5 4 3 5 6 7 6 6 4 3 4 3 2 1 1 1 2 3 2 2 3 3 3 2 4 5 5 6 6 6 6 6 6 6 6 5 5 6 5 5 4 6 4 5 5 3 4 3 3 4 4 4 4 4 1 1 1
6 8 8 7 8 7 6 5 5 3 6 7 6 6 6 5 5 5 5 3 2 2 3 4 5 5 5 4 3 4 4 5 5 5 5 5 6 6 7 6 6 6 5 6 6 5 5 6 5 5 6 4 4 4 5 4 3 4 4 3 2 2 1
7 7 7 7 6 5 5 4 4 4 5 6 7 7 6 6 4 5 5 5 5 5 5 5 3 4 4 4 4 5 5 5 5 5 5 6 6 6 6 7 7 7 7 6 7 7 6 6 5 6 6 6 4 5 4 3 3 4 3 3 1 1 2
6 6 5 4 4 3 3 4 5 5 5 5 4 3 5 5 4 4 4 5 5 4 5 4 4 4 4 4 4 5 5 5 6 6 6 6 5 6 6 7 7 8 8 7 6 6 7 6 5 6 4 5 4 5 5 4 3 3 2 2 2 2 1
3 3 3 3 4 4 5 6 6 5 5 4 4 4 4 4 6 6 6 6 4 1 3 3 2 4 5 5 4 5 5 8 9 8 7 6 5 6 6 5 5 5 4 5 8 8 7 7 6 6 4 5 5 5 5 3 3 2 1 1 2 1 2
3 2 3 4 4 5 5 5 6 6 6 6 5 5 6 6 5 4 2 1 2 5 6 6 8 11 7 5 5 5 6 7 8 7 6 6 6 6 6 7 7 9 10 10 10 11 11 11 9 7 8 7 6 5 4 4 3 2 1 1 2 2 4
2 3 3 3 4 4 5 4 4 5 5 6 5 4 5 3 3 2 4 4 5 5 7 6 11 11 8 11 7 6 6 7 6 6 6 6 7 7 6 6 6 7 8 8 8 10 11 12 9 8 11 9 7 7 6 4 3 3 2 2 1 1 2
3 4 3 4 5 5 4 3 3 2 1 2 2 1 4 5 3 3 5 5 6 6 6 8 11 11 9 8 7 6 5 6 5 6 6 6 6 6 6 6 5 5 6 8 8 8 8 8 8 8 9 7 7 9 6 4 4 3 3 3 3 3 2
4 4 5 4 4 4 5 4 3 3 4 5 5 7 9 0 2 2 4 6 7 6 6 6 8 8 7 6 7 6 5 5 5 5 5 5 6 6 5 5 5 5 4 8 7 7 7 7 8 10 10 10 8 8 8 8 5 3 3 3 3 3 3
7 7 5 4 4 5 5 5 6 5 6 7 8 6 4 4 3 4 5 6 6 5 6 5 5 6 5 5 7 7 5 4 5 5 5 5 5 5 6 6 5 5 4 6 6 8 7 7 7 6 6 5 5 6 7 7 6 5 3 3 3 2 2
3 3 3 4 5 5 5 4 4 4 7 8 7 7 6 5 5 5 5 5 5 6 4 3 4 5 5 4 4 4 2 2 3 4 5 5 5 6 5 5 5 5 5 6 5 8 9 8 7 6 6 6 5 5 5 5 4 3 3 2 2 2 2
4 2 0 1 2 2 2 4 5 3 3 3 3 3 2 4 5 4 3 2 1 4 4 4 3 4 4 4 5 3 3 3 3 3 3 3 4 4 4 4 5 5 5 5 5 9 8 8 8 7 7 5 5 5 5 3 4 4 3 3 3 2 2
4 4 3 3 4 4 4 4 4 4 6 5 6 5 5 3 2 3 2 2 3 4 4 3 1 2 2 5 5 4 4 4 4 4 4 4 5 4 2 2 4 5 5 5 6 10 11 10 7 7 7 6 4 4 3 1 3 3 3 3 2 2 1
2 2 4 5 6 5 4 4 6 6 8 7 7 7 7 7 4 4 5 4 2 1 2 2 1 3 6 8 5 5 5 5 5 5 5 6 6 6 7 10 6 6 6 4 6 9 9 8 7 8 8 7 5 5 3 1 1 1 2 1 2 3 3
3 2 3 3 5 7 6 6 4 3 6 7 7 6 6 7 5 5 4 4 3 3 1 3 3 2 6 8 6 5 5 5 6 5 5 6 6 6 6 7 9 7 7 7 10 9 9 8 8 6 6 6 5 4 2 1 3 3 4 4 3 5 4
3 5 4 2 1 1 1 3 4 5 4 5 6 4 4 6 7 4 2 3 3 3 3 3 3 3 4 7 7 6 6 7 6 6 5 6 7 6 6 7 8 11 12 11 11 11 10 10 8 5 5 5 5 4 2 2 1 1 1 2 3 2 3
4 4 4 6 6 4 3 4 3 4 5 5 6 5 4 5 7 5 5 5 5 5 4 4 5 6 3 5 7 8 5 5 7 7 6 6 6 7 6 6 4 8 12 12 12 12 11 10 8 7 6 5 3 3 3 2 3 3 2 2 2 3 3
4 4 4 4 6 5 4 6 7 7 7 7 6 5 4 5 7 6 5 4 4 4 5 5 4 6 3 4 5 5 5 5 6 9 8 6 6 5 5 4 4 6 11 12 12 11 11 10 9 7 6 6 6 5 2 2 2 2 2 2 2 3 3
6 4 4 4 4 4 3 5 4 6 7 6 6 5 5 4 5 6 5 5 5 5 4 3 4 4 5 7 7 8 9 8 8 6 9 8 6 6 5 5 4 8 10 10 10 10 9 10 7 6 7 7 6 6 4 3 2 2 2 2 2 3 4
4 4 3 3 3 5 4 4 4 5 6 6 6 5 4 4 4 3 3 5 5 5 4 4 4 6 7 9 9 11 11 11 9 7 7 7 6 6 6 5 5 9 9 10 9 9 9 8 7 9 9 8 7 5 4 3 2 2 2 2 3 4 5
Wind_Direction
127 152 148 114 79 93 70 46 50 40 39 50 66 72 78 88 104 104 106 113 112 124 133 139 144 137 109 87 109 116 132 147 155 144 160 162 117 91 52 62 63 65 66 75 91 157 142 127 57 356 35 42 49 39 30 31 37 41 50 40 42 38 31
105 104 103 66 95 73 80 40 53 49 44 39 53 64 71 100 110 123 124 123 122 125 104 95 72 75 110 122 116 101 114 97 120 140 136 135 102 124 114 64 63 55 57 64 78 67 111 111 47 69 21 322 50 38 27 46 55 57 54 47 42 37 32
104 69 52 74 71 64 84 51 53 57 48 48 40 50 63 68 104 114 119 121 120 114 95 96 90 77 65 72 74 96 94 87 55 97 108 105 94 110 80 128 94 35 41 39 36 62 52 51 126 112 63 64 69 19 25 40 43 45 47 42 45 37 32
140 130 107 67 63 64 83 55 58 63 63 66 59 62 66 73 89 85 96 100 91 93 98 104 105 105 88 90 86 80 75 93 93 92 90 88 109 93 75 100 130 135 150 119 114 66 107 112 81 61 53 48 105 95 36 30 43 44 46 47 41 36 26
149 152 147 151 145 119 111 96 42 62 49 56 58 80 69 60 91 85 83 88 94 104 103 110 107 107 107 102 92 92 92 89 96 95 103 111 107 98 83 91 95 103 79 103 126 109 102 125 116 136 105 29 72 64 320 319 48 45 44 42 38 33 25
101 94 92 94 102 127 124 108 93 86 65 67 35 80 66 54 62 97 100 99 99 96 111 102 100 105 106 101 101 94 96 100 109 110 102 107 112 105 108 91 98 82 82 89 106 99 73 101 116 108 35 28 117 45 5 17 11 359 47 44 36 31 25
111 104 117 118 119 131 154 153 155 150 123 124 76 37 351 359 43 63 91 88 96 111 113 112 114 115 113 108 107 102 100 109 104 97 102 100 88 98 107 90 74 83 82 83 108 106 123 95 77 114 125 40 56 54 332 36 345 57 22 46 34 34 28
147 142 158 130 153 145 174 151 159 139 126 130 90 28 36 30 15 58 91 100 112 118 120 116 111 105 103 95 94 100 93 106 102 105 104 106 100 96 83 98 99 78 84 82 93 89 106 103 125 151 132 118 50 29 31 22 357 63 331 233 31 35 29
140 160 141 136 130 152 166 166 167 149 141 129 113 79 53 61 30 5 51 60 51 67 86 104 109 108 111 107 102 103 101 99 103 96 103 95 97 96 98 94 86 81 79 86 89 101 92 115 109 106 100 111 128 93 12 41 16 40 343 28 4 44 25
168 184 168 153 157 147 142 139 155 163 142 129 117 104 91 69 56 48 41 44 33 24 33 35 50 66 77 98 111 110 108 101 101 108 109 98 100 99 88 85 98 102 88 81 80 90 105 96 93 102 107 118 136 123 122 60 343 20 17 23 35 7 25
167 158 142 153 152 133 125 126 133 144 156 155 133 127 115 107 73 79 78 59 47 45 42 35 39 37 49 61 69 81 105 114 102 95 102 111 112 102 97 80 89 87 89 78 76 67 83 101 101 91 90 94 111 110 150 119 115 229 35 21 53 2 2
154 158 146 153 159 156 174 170 176 186 141 145 135 124 118 119 121 110 112 107 94 88 78 70 60 57 56 67 47 49 25 45 79 82 77 105 125 108 102 93 90 91 96 94 89 80 72 85 89 87 84 89 70 117 123 119 106 295 187 36 351 14 3
159 168 159 162 180 188 178 170 178 173 191 157 149 141 138 142 137 130 113 118 117 110 104 88 86 85 78 78 80 82 52 67 74 73 52 44 87 99 104 100 102 111 111 99 87 83 87 78 92 90 87 86 76 97 119 106 111 109 230 78 35 341 13
177 170 160 180 187 185 183 185 184 180 145 176 154 152 156 157 152 148 136 127 122 125 122 107 87 94 78 82 69 94 86 91 106 89 92 61 42 79 90 96 95 101 124 102 109 101 93 100 92 83 85 88 85 76 104 113 121 149 191 230 8 8 349
177 167 170 187 191 187 193 191 175 147 162 159 154 163 155 153 157 157 157 153 145 140 140 140 128 124 128 122 111 91 91 91 110 111 105 129 133 130 131 123 120 99 102 114 125 117 125 124 116 105 88 97 100 80 357 107 113 128 183 321 10 355 2
176 176 179 185 195 196 198 183 164 159 153 154 159 160 158 149 146 146 174 180 168 166 162 156 159 150 159 162 160 153 147 140 147 146 147 168 173 135 134 142 152 138 126 99 95 113 120 110 107 106 110 110 106 92 41 68 120 107 121 123 257 1 1
177 188 189 194 201 201 195 193 170 157 159 151 169 179 160 156 147 149 172 261 298 346 28 46 146 171 176 175 178 183 175 168 166 171 174 174 176 175 167 155 191 161 131 117 125 114 98 104 103 106 106 101 105 100 71 69 72 130 155 85 315 38 352
185 194 201 198 207 201 188 169 174 159 156 171 171 160 152 128 138 137 142 178 213 142 125 118 77 34 13 348 310 257 206 188 187 188 190 184 181 178 174 188 187 181 156 132 144 133 138 117 121 114 110 113 104 109 82 73 79 94 113 96 35 243 309
198 202 205 205 205 197 181 172 178 179 177 177 171 171 153 148 152 160 163 162 154 157 169 164 168 168 162 165 191 243 258 235 209 199 196 197 193 187 186 196 190 182 174 158 173 157 144 137 130 119 116 115 118 102 95 75 80 84 95 117 127 19 284
201 209 211 208 200 193 188 170 142 168 198 196 184 167 159 159 160 149 163 167 180 180 191 206 186 171 198 186 178 199 219 236 244 218 212 207 203 203 204 197 185 184 190 183 165 169 157 146 147 146 148 144 141 115 104 99 88 86 83 88 75 118 310
199 203 201 192 188 171 127 117 134 160 172 188 198 160 157 163 167 151 171 203 216 197 200 208 214 220 221 206 199 210 208 230 240 237 230 215 199 211 207 211 208 194 195 186 173 164 160 159 149 146 152 130 132 115 123 129 103 107 107 87 46 333 354
190 181 163 153 150 141 146 147 155 156 153 149 130 123 129 152 174 184 185 199 215 60 7 309 261 232 250 247 215 213 204 216 225 228 235 227 215 209 211 206 218 232 237 191 183 171 178 162 152 149 162 151 146 125 121 117 129 115 92 64 354 27 329
171 151 148 144 139 149 154 173 150 138 160 150 129 148 183 192 183 185 160 140 144 146 217 229 254 246 209 221 214 213 207 218 220 220 225 227 229 219 212 208 210 209 209 209 194 183 176 175 175 162 163 168 156 141 138 138 150 165 116 263 303 338 336
174 181 177 133 131 159 174 177 143 156 169 148 146 178 182 183 199 141 131 219 220 192 233 215 224 251 241 231 227 219 218 220 214 212 209 208 232 236 234 213 213 218 211 208 193 187 184 185 174 155 155 164 167 151 149 134 180 159 169 213 169 189 261
212 220 188 187 172 182 187 173 142 146 153 88 109 348 238 221 189 160 158 205 231 223 223 227 228 234 225 216 211 221 221 219 214 214 213 211 223 235 239 232 207 196 197 194 175 176 183 172 155 153 144 118 86 70 91 144 160 162 185 196 234 236 221
220 227 224 207 184 182 195 195 132 142 160 149 129 242 256 161 194 203 195 207 225 233 238 234 238 240 231 218 215 217 231 222 219 227 221 223 227 229 228 220 215 205 193 178 163 152 145 130 101 103 103 101 88 88 86 80 74 118 153 160 211 244 204
194 209 208 186 167 177 188 185 185 187 140 175 205 217 236 236 234 218 216 219 231 242 241 253 251 260 258 223 203 197 219 211 223 234 234 232 232 227 220 214 208 202 169 164 154 146 142 130 115 99 82 65 70 65 67 77 101 114 129 152 162 215 226
234 220 177 175 169 181 186 152 168 171 159 174 194 207 207 220 224 221 224 222 227 244 259 346 311 294 288 250 211 185 196 202 229 259 258 250 246 241 224 213 204 192 166 163 165 156 139 134 122 107 91 68 58 56 65 57 54 73 81 97 122 163 178
258 270 170 125 142 163 170 167 166 163 121 130 138 149 161 176 207 218 219 180 228 284 305 332 324 298 262 233 159 148 150 158 188 229 314 317 300 270 226 191 174 159 155 137 139 135 130 130 126 120 101 96 85 72 67 42 53 65 89 124 141 144 151
240 220 168 151 157 162 148 140 130 129 124 141 142 146 152 123 115 134 116 137 178 242 268 278 332 81 156 151 127 113 122 113 100 82 45 23 16 19 25 91 107 119 112 101 132 128 130 124 117 102 101 100 97 96 87 32 47 48 51 55 57 52 324
229 215 174 169 168 170 162 154 161 167 139 143 138 152 140 119 110 122 132 133 176 156 302 284 39 128 154 168 157 143 136 118 94 85 69 37 27 33 44 69 87 96 98 91 125 119 120 113 109 110 120 126 120 103 96 60 67 72 42 31 67 349 302
151 192 223 188 170 163 176 171 165 143 137 129 137 145 125 106 88 55 57 89 96 111 213 320 2 76 151 164 147 132 127 115 107 87 86 67 40 43 40 51 74 88 91 100 96 96 99 101 101 120 130 117 109 100 117 114 61 26 6 9 2 360 359
204 166 197 217 218 170 119 115 131 125 114 121 129 111 97 101 103 89 107 113 77 57 41 349 14 35 150 160 152 138 135 128 130 118 97 99 86 56 57 67 71 87 94 93 91 91 92 99 107 106 100 99 110 111 158 115 129 108 35 44 300 323 296
223 231 198 180 172 153 139 130 118 123 120 99 99 91 99 107 93 68 41 35 35 18 5 351 346 13 134 157 153 144 150 133 129 118 110 93 92 106 90 76 67 86 92 90 89 88 87 85 89 90 90 105 114 135 128 50 59 47 25 356 338 324 308
263 219 196 166 160 159 159 149 143 138 139 132 123 126 132 118 113 105 81 61 55 22 4 32 19 23 63 136 148 130 124 116 132 124 105 96 96 84 89 89 78 91 95 96 95 96 95 94 92 86 91 108 109 103 87 62 61 38 13 355 321 313 305
268 255 205 202 160 146 141 124 119 128 126 114 114 116 108 111 105 106 91 71 62 41 16 20 62 77 74 103 104 101 111 120 123 121 129 131 129 122 110 104 101 103 98 96 94 92 92 90 85 83 90 82 80 88 82 68 57 36 8 337 319 308 306
274 290 263 188 158 131 121 113 110 120 123 122 122 111 105 95 91 89 91 72 49 40 25 34 45 86 100 101 105 112 114 114 117 116 112 119 120 118 115 108 106 103 97 95 90 84 76 72 83 85 84 90 86 81 78 71 56 31 329 323 315 308 305